VIV4085 MMTJ-MMMY

Flight info

Callsign VIV4085
Flight time 2h 7m
Altitude 35000
Route TEVIR2B TEVIR DCT URSEV DCT MIDRA DCT CUU UJ2 NOTAL UJ45 URTUS DCT TASNA DCT 2550N10013W DCT MTY
Aircraft A321/M-SDE3FGHIRWY/LB1

Departure

Time 2026-04-21 21:28
Airport General Abelardo L. Rodriguez International Airport (MMTJ)

Arrival

Time 2026-04-21 23:35
Airport Monterrey International Airport (MMMY)
Time Latitude Longitude Altitude Speed Heading
2026-04-21 19:51 32.54496 -116.97511 499 ft 0 kts 73°
2026-04-21 19:52 32.54496 -116.97512 499 ft 0 kts 73°
2026-04-21 19:54 32.54496 -116.97511 495 ft 0 kts 73°
2026-04-21 20:08 32.54496 -116.97512 508 ft 0 kts 73°
2026-04-21 20:27 32.54496 -116.97513 499 ft 0 kts 73°
2026-04-21 20:46 32.54496 -116.97514 499 ft 0 kts 73°
2026-04-21 20:57 32.54495 -116.97514 499 ft 0 kts 73°
2026-04-21 21:05 32.54495 -116.97515 499 ft 0 kts 73°
2026-04-21 21:15 32.54493 -116.97524 493 ft 4 kts 76°
2026-04-21 21:15 32.54489 -116.97554 495 ft 4 kts 99°
2026-04-21 21:15 32.54497 -116.97578 493 ft 4 kts 159°
2026-04-21 21:15 32.54505 -116.97580 489 ft 2 kts 188°
2026-04-21 21:16 32.54506 -116.97580 489 ft 0 kts 188°
2026-04-21 21:18 32.54505 -116.97580 489 ft 0 kts 188°
2026-04-21 21:18 32.54501 -116.97581 487 ft 2 kts 188°
2026-04-21 21:18 32.54460 -116.97588 493 ft 8 kts 188°
2026-04-21 21:19 32.54406 -116.97588 494 ft 8 kts 147°
2026-04-21 21:19 32.54387 -116.97526 496 ft 8 kts 98°
2026-04-21 21:19 32.54379 -116.97454 492 ft 9 kts 98°
2026-04-21 21:19 32.54337 -116.97410 492 ft 9 kts 136°
2026-04-21 21:20 32.54318 -116.97341 490 ft 9 kts 101°
2026-04-21 21:20 32.54307 -116.97260 496 ft 10 kts 98°
2026-04-21 21:20 32.54296 -116.97172 488 ft 11 kts 98°
2026-04-21 21:20 32.54284 -116.97079 493 ft 12 kts 98°
2026-04-21 21:21 32.54271 -116.96981 494 ft 12 kts 100°
2026-04-21 21:21 32.54256 -116.96877 498 ft 13 kts 99°
2026-04-21 21:21 32.54241 -116.96768 487 ft 14 kts 99°
2026-04-21 21:21 32.54226 -116.96654 490 ft 14 kts 98°
2026-04-21 21:22 32.54212 -116.96536 490 ft 15 kts 99°
2026-04-21 21:22 32.54196 -116.96412 492 ft 15 kts 98°
2026-04-21 21:22 32.54186 -116.96328 498 ft 16 kts 98°
2026-04-21 21:22 32.54167 -116.96199 488 ft 16 kts 99°
2026-04-21 21:23 32.54148 -116.96065 498 ft 17 kts 99°
2026-04-21 21:23 32.54131 -116.95927 494 ft 17 kts 98°
2026-04-21 21:23 32.54113 -116.95785 498 ft 18 kts 98°
2026-04-21 21:23 32.54095 -116.95638 490 ft 18 kts 97°
2026-04-21 21:24 32.54073 -116.95488 496 ft 19 kts 101°
2026-04-21 21:24 32.54018 -116.95441 493 ft 0 kts 189°
2026-04-21 21:24 32.54016 -116.95441 493 ft 0 kts 188°
2026-04-21 21:25 32.54012 -116.95442 494 ft 0 kts 188°
2026-04-21 21:26 32.54004 -116.95443 490 ft 3 kts 188°
2026-04-21 21:26 32.53968 -116.95449 491 ft 8 kts 187°
2026-04-21 21:26 32.53909 -116.95473 485 ft 9 kts 231°
2026-04-21 21:27 32.53908 -116.95493 485 ft 0 kts 276°
2026-04-21 21:27 32.53908 -116.95495 485 ft 1 kts 276°
2026-04-21 21:27 32.53910 -116.95510 484 ft 6 kts 277°
2026-04-21 21:27 32.53960 -116.95897 494 ft 88 kts 278°
2026-04-21 21:28 32.54091 -116.96886 493 ft 149 kts 279°
2026-04-21 21:28 32.54261 -116.98199 860 ft 163 kts 277°
2026-04-21 21:28 32.54008 -117.00730 2373 ft 155 kts 242°
2026-04-21 21:29 32.53484 -117.01846 3024 ft 157 kts 247°
2026-04-21 21:29 32.53058 -117.03131 3238 ft 178 kts 253°
2026-04-21 21:29 32.52633 -117.04602 3390 ft 198 kts 254°
2026-04-21 21:29 32.52175 -117.06207 3600 ft 211 kts 253°
2026-04-21 21:30 32.51616 -117.07842 3941 ft 218 kts 242°
2026-04-21 21:30 32.50521 -117.09223 4046 ft 248 kts 216°
2026-04-21 21:30 32.48851 -117.09950 4497 ft 266 kts 189°
2026-04-21 21:30 32.46987 -117.09709 5177 ft 277 kts 161°
2026-04-21 21:31 32.45391 -117.08455 5886 ft 284 kts 133°
2026-04-21 21:31 32.44399 -117.06422 6587 ft 289 kts 114°
2026-04-21 21:31 32.43635 -117.04214 7278 ft 291 kts 114°
2026-04-21 21:31 32.42873 -117.01972 7941 ft 295 kts 115°
2026-04-21 21:32 32.42105 -116.99705 8623 ft 298 kts 116°
2026-04-21 21:32 32.41324 -116.97412 9313 ft 301 kts 117°
2026-04-21 21:32 32.40534 -116.95104 9980 ft 304 kts 118°
2026-04-21 21:32 32.39715 -116.92732 10257 ft 322 kts 118°
2026-04-21 21:33 32.38833 -116.90203 10385 ft 343 kts 117°
2026-04-21 21:33 32.37897 -116.87519 10607 ft 360 kts 117°
2026-04-21 21:33 32.36939 -116.84750 11115 ft 366 kts 117°
2026-04-21 21:33 32.35973 -116.81940 11650 ft 371 kts 117°
2026-04-21 21:34 32.34995 -116.79100 12238 ft 374 kts 117°
2026-04-21 21:34 32.33931 -116.76276 12839 ft 375 kts 124°
2026-04-21 21:34 32.32527 -116.73746 13852 ft 357 kts 131°
2026-04-21 21:34 32.31158 -116.71389 15034 ft 337 kts 131°
2026-04-21 21:35 32.29885 -116.69160 16172 ft 320 kts 131°
2026-04-21 21:35 32.28646 -116.66995 16900 ft 316 kts 131°
2026-04-21 21:35 32.27404 -116.64841 17428 ft 318 kts 132°
2026-04-21 21:35 32.26150 -116.62679 17900 ft 319 kts 132°
2026-04-21 21:36 32.24889 -116.60506 18368 ft 322 kts 131°
2026-04-21 21:36 32.23616 -116.58310 18775 ft 325 kts 131°
2026-04-21 21:36 32.22336 -116.56102 19169 ft 327 kts 131°
2026-04-21 21:36 32.21048 -116.53881 19553 ft 329 kts 131°
2026-04-21 21:37 32.19808 -116.51586 19944 ft 335 kts 125°
2026-04-21 21:37 32.18776 -116.49098 20340 ft 339 kts 122°
2026-04-21 21:37 32.17763 -116.46566 20723 ft 342 kts 122°
2026-04-21 21:37 32.16738 -116.44012 21104 ft 345 kts 122°
2026-04-21 21:38 32.15715 -116.41468 21504 ft 347 kts 122°
2026-04-21 21:38 32.14674 -116.38887 21875 ft 350 kts 122°
2026-04-21 21:38 32.13624 -116.36284 22251 ft 353 kts 122°
2026-04-21 21:38 32.12562 -116.33655 22646 ft 355 kts 122°
2026-04-21 21:39 32.11496 -116.31018 23015 ft 358 kts 122°
2026-04-21 21:39 32.10417 -116.28353 23381 ft 361 kts 122°
2026-04-21 21:39 32.09333 -116.25666 23749 ft 363 kts 122°
2026-04-21 21:39 32.08240 -116.22964 24034 ft 366 kts 122°
2026-04-21 21:40 32.07137 -116.20245 24343 ft 369 kts 122°
2026-04-21 21:40 32.06028 -116.17510 24647 ft 371 kts 122°
2026-04-21 21:40 32.04913 -116.14759 24936 ft 373 kts 122°
2026-04-21 21:40 32.03789 -116.11983 25229 ft 376 kts 122°
2026-04-21 21:41 32.02660 -116.09197 25531 ft 378 kts 122°
2026-04-21 21:41 32.01521 -116.06394 25823 ft 380 kts 122°
2026-04-21 21:41 32.00374 -116.03576 26111 ft 382 kts 122°
2026-04-21 21:41 31.99219 -116.00741 26412 ft 385 kts 122°
2026-04-21 21:42 31.98058 -115.97894 26708 ft 387 kts 122°
2026-04-21 21:42 31.96890 -115.95029 26991 ft 389 kts 122°
2026-04-21 21:42 31.95717 -115.92150 27255 ft 392 kts 122°
2026-04-21 21:42 31.94533 -115.89249 27524 ft 394 kts 122°
2026-04-21 21:43 31.93340 -115.86332 27804 ft 396 kts 122°
2026-04-21 21:43 31.92140 -115.83407 28070 ft 398 kts 122°
2026-04-21 21:43 31.90924 -115.80473 28322 ft 399 kts 124°
2026-04-21 21:43 31.89502 -115.77680 28563 ft 397 kts 130°
2026-04-21 21:44 31.87976 -115.74960 28832 ft 398 kts 130°
2026-04-21 21:44 31.86448 -115.72231 29086 ft 400 kts 130°
2026-04-21 21:44 31.84913 -115.69488 29307 ft 403 kts 130°
2026-04-21 21:44 31.83388 -115.66764 29552 ft 405 kts 130°
2026-04-21 21:45 31.81831 -115.63985 29774 ft 407 kts 130°
2026-04-21 21:45 31.80269 -115.61195 30045 ft 409 kts 130°
2026-04-21 21:45 31.78703 -115.58395 30276 ft 410 kts 130°
2026-04-21 21:45 31.77130 -115.55580 30476 ft 413 kts 130°
2026-04-21 21:46 31.75548 -115.52752 30682 ft 415 kts 130°
2026-04-21 21:46 31.73958 -115.49917 30908 ft 417 kts 130°
2026-04-21 21:46 31.72358 -115.47070 31116 ft 418 kts 129°
2026-04-21 21:46 31.70751 -115.44217 31341 ft 420 kts 130°
2026-04-21 21:47 31.69134 -115.41347 31556 ft 422 kts 129°
2026-04-21 21:47 31.67507 -115.38461 31731 ft 425 kts 129°
2026-04-21 21:47 31.65873 -115.35558 31949 ft 427 kts 129°
2026-04-21 21:47 31.64353 -115.32529 32152 ft 433 kts 121°
2026-04-21 21:48 31.63163 -115.29246 32342 ft 440 kts 113°
2026-04-21 21:48 31.62218 -115.25819 32526 ft 442 kts 112°
2026-04-21 21:48 31.61269 -115.22380 32693 ft 444 kts 112°
2026-04-21 21:48 31.60304 -115.18924 32866 ft 447 kts 112°
2026-04-21 21:49 31.59328 -115.15454 33053 ft 448 kts 112°
2026-04-21 21:49 31.58346 -115.11974 33226 ft 450 kts 112°
2026-04-21 21:49 31.57359 -115.08475 33401 ft 452 kts 112°
2026-04-21 21:49 31.56372 -115.04970 33568 ft 454 kts 112°
2026-04-21 21:50 31.55380 -115.01444 33740 ft 456 kts 112°
2026-04-21 21:50 31.54383 -114.97904 33870 ft 458 kts 112°
2026-04-21 21:50 31.53383 -114.94348 34024 ft 460 kts 112°
2026-04-21 21:50 31.52390 -114.90822 34171 ft 462 kts 112°
2026-04-21 21:51 31.51379 -114.87241 34331 ft 463 kts 112°
2026-04-21 21:51 31.50352 -114.83607 34501 ft 464 kts 112°
2026-04-21 21:51 31.49348 -114.80058 34668 ft 465 kts 112°
2026-04-21 21:51 31.48327 -114.76456 34826 ft 465 kts 112°
2026-04-21 21:52 31.47306 -114.72859 34939 ft 468 kts 112°
2026-04-21 21:52 31.45226 -114.65549 34968 ft 478 kts 112°
2026-04-21 21:53 31.43098 -114.58073 34968 ft 489 kts 111°
2026-04-21 21:53 31.40922 -114.50434 34965 ft 498 kts 111°
2026-04-21 21:54 31.38695 -114.42666 34964 ft 509 kts 111°
2026-04-21 21:54 31.36420 -114.34741 34970 ft 516 kts 111°
2026-04-21 21:55 31.34127 -114.26753 34968 ft 518 kts 111°
2026-04-21 21:55 31.31824 -114.18765 34971 ft 518 kts 111°
2026-04-21 21:56 31.29510 -114.10792 34971 ft 518 kts 111°
2026-04-21 21:56 31.27188 -114.02815 34985 ft 519 kts 111°
2026-04-21 21:57 31.25227 -113.96063 34999 ft 519 kts 111°
2026-04-21 21:57 31.22902 -113.88057 34999 ft 519 kts 111°
2026-04-21 21:58 31.20586 -113.80131 35003 ft 519 kts 111°
2026-04-21 21:58 31.18223 -113.72099 35004 ft 519 kts 111°
2026-04-21 21:59 31.15875 -113.64128 35008 ft 519 kts 111°
2026-04-21 21:59 31.13530 -113.56154 35015 ft 519 kts 111°
2026-04-21 22:00 31.11176 -113.48184 35019 ft 519 kts 111°
2026-04-21 22:00 31.08831 -113.40278 35021 ft 519 kts 111°
2026-04-21 22:01 31.06465 -113.32324 35020 ft 519 kts 111°
2026-04-21 22:01 31.04083 -113.24320 35018 ft 519 kts 111°
2026-04-21 22:02 31.01733 -113.16418 35016 ft 519 kts 111°
2026-04-21 22:02 30.99358 -113.08460 35013 ft 518 kts 111°
2026-04-21 22:03 30.96974 -113.00528 35014 ft 518 kts 111°
2026-04-21 22:03 30.94589 -112.92604 35015 ft 518 kts 111°
2026-04-21 22:04 30.92200 -112.84688 35012 ft 517 kts 111°
2026-04-21 22:04 30.89806 -112.76780 35013 ft 517 kts 111°
2026-04-21 22:05 30.87408 -112.68876 35009 ft 517 kts 111°
2026-04-21 22:05 30.85014 -112.60979 35002 ft 517 kts 111°
2026-04-21 22:06 30.82617 -112.53093 35002 ft 516 kts 111°
2026-04-21 22:06 30.80193 -112.45169 34994 ft 516 kts 111°
2026-04-21 22:07 30.77781 -112.37295 34993 ft 516 kts 111°
2026-04-21 22:07 30.75374 -112.29422 34987 ft 517 kts 111°
2026-04-21 22:08 30.72957 -112.21548 34983 ft 517 kts 111°
2026-04-21 22:08 30.70527 -112.13678 34982 ft 517 kts 111°
2026-04-21 22:09 30.68090 -112.05813 34976 ft 517 kts 111°
2026-04-21 22:09 30.65650 -111.97946 34973 ft 518 kts 110°
2026-04-21 22:10 30.63208 -111.90074 34972 ft 518 kts 110°
2026-04-21 22:10 30.60741 -111.82138 34968 ft 518 kts 110°
2026-04-21 22:11 30.58264 -111.74218 34963 ft 518 kts 110°
2026-04-21 22:11 30.55808 -111.66388 34965 ft 518 kts 110°
2026-04-21 22:12 30.53346 -111.58534 34965 ft 519 kts 110°
2026-04-21 22:12 30.50863 -111.50632 34964 ft 519 kts 110°
2026-04-21 22:13 30.48391 -111.42795 34968 ft 519 kts 110°
2026-04-21 22:13 30.45906 -111.34928 34969 ft 519 kts 110°
2026-04-21 22:14 30.43429 -111.27102 34968 ft 519 kts 110°
2026-04-21 22:14 30.40929 -111.19212 34971 ft 520 kts 110°
2026-04-21 22:15 30.38430 -111.11370 34973 ft 520 kts 110°
2026-04-21 22:15 30.35924 -111.03522 34977 ft 520 kts 110°
2026-04-21 22:16 30.33412 -110.95635 34981 ft 520 kts 110°
2026-04-21 22:16 30.30901 -110.87823 34992 ft 521 kts 111°
2026-04-21 22:17 30.28361 -110.79937 34989 ft 521 kts 110°
2026-04-21 22:17 30.25833 -110.72086 34993 ft 521 kts 110°
2026-04-21 22:18 30.23297 -110.64227 35000 ft 522 kts 110°
2026-04-21 22:18 30.20760 -110.56384 35000 ft 522 kts 110°
2026-04-21 22:19 30.18215 -110.48503 35002 ft 523 kts 111°
2026-04-21 22:19 30.15651 -110.40606 35002 ft 523 kts 111°
2026-04-21 22:20 30.13091 -110.32753 35006 ft 523 kts 111°
2026-04-21 22:20 30.10531 -110.24917 35008 ft 523 kts 111°
2026-04-21 22:21 30.07954 -110.17046 35010 ft 524 kts 111°
2026-04-21 22:21 30.05367 -110.09158 35007 ft 524 kts 111°
2026-04-21 22:22 30.02771 -110.01296 35004 ft 524 kts 111°
2026-04-21 22:22 30.00184 -109.93436 34998 ft 524 kts 111°
2026-04-21 22:23 29.97596 -109.85608 34999 ft 524 kts 111°
2026-04-21 22:23 29.94985 -109.77749 34995 ft 525 kts 111°
2026-04-21 22:24 29.92372 -109.69883 34992 ft 525 kts 111°
2026-04-21 22:24 29.89751 -109.61994 34986 ft 525 kts 111°
2026-04-21 22:25 29.87142 -109.54159 34988 ft 525 kts 111°
2026-04-21 22:25 29.84949 -109.47591 34984 ft 525 kts 111°
2026-04-21 22:26 29.82321 -109.39747 34987 ft 526 kts 112°
2026-04-21 22:26 29.79675 -109.31880 34987 ft 526 kts 112°
2026-04-21 22:26 29.78362 -109.27969 35706 ft 524 kts 111°
2026-04-21 22:27 29.77057 -109.24044 36623 ft 487 kts 110°
2026-04-21 22:27 29.75880 -109.20456 36610 ft 472 kts 111°
2026-04-21 22:27 29.74715 -109.16980 36589 ft 458 kts 111°
2026-04-21 22:28 29.72396 -109.10212 36529 ft 458 kts 113°
2026-04-21 22:28 29.71213 -109.06784 36220 ft 466 kts 113°
2026-04-21 22:28 29.69992 -109.03240 35369 ft 485 kts 115°
2026-04-21 22:28 29.68735 -108.99573 35099 ft 498 kts 112°
2026-04-21 22:29 29.67461 -108.95818 34963 ft 507 kts 111°
2026-04-21 22:29 29.64893 -108.88189 35010 ft 516 kts 111°
2026-04-21 22:30 29.62262 -108.80420 35013 ft 526 kts 111°
2026-04-21 22:30 29.59553 -108.72504 35008 ft 536 kts 111°
2026-04-21 22:31 29.56785 -108.64450 35006 ft 546 kts 112°
2026-04-21 22:31 29.53970 -108.56238 35002 ft 558 kts 111°
2026-04-21 22:32 29.51128 -108.47933 35003 ft 567 kts 111°
2026-04-21 22:32 29.48438 -108.39340 35009 ft 574 kts 108°
2026-04-21 22:33 29.45877 -108.30576 35011 ft 584 kts 108°
2026-04-21 22:33 29.43227 -108.21657 35010 ft 595 kts 108°
2026-04-21 22:34 29.40454 -108.12636 35013 ft 604 kts 109°
2026-04-21 22:34 29.37613 -108.03510 35009 ft 609 kts 109°
2026-04-21 22:35 29.34754 -107.94305 35010 ft 617 kts 109°
2026-04-21 22:35 29.31869 -107.84968 35011 ft 626 kts 109°
2026-04-21 22:36 29.27464 -107.70716 35008 ft 636 kts 109°
2026-04-21 22:36 29.24481 -107.61155 35009 ft 638 kts 109°
2026-04-21 22:37 29.21486 -107.51588 35008 ft 637 kts 109°
2026-04-21 22:37 29.18499 -107.42058 35012 ft 636 kts 109°
2026-04-21 22:38 29.15486 -107.32451 35026 ft 637 kts 109°
2026-04-21 22:38 29.12489 -107.22911 35029 ft 638 kts 109°
2026-04-21 22:39 29.09466 -107.13363 35026 ft 638 kts 109°
2026-04-21 22:39 29.06442 -107.03816 35032 ft 638 kts 109°
2026-04-21 22:40 29.03431 -106.94319 35034 ft 639 kts 109°
2026-04-21 22:40 29.00368 -106.84716 35030 ft 639 kts 110°
2026-04-21 22:41 28.97308 -106.75179 35035 ft 640 kts 110°
2026-04-21 22:41 28.94265 -106.65683 35035 ft 640 kts 110°
2026-04-21 22:42 28.91189 -106.56081 35034 ft 640 kts 110°
2026-04-21 22:42 28.88114 -106.46538 35038 ft 640 kts 110°
2026-04-21 22:43 28.85031 -106.37007 35042 ft 639 kts 110°
2026-04-21 22:43 28.81957 -106.27495 35044 ft 639 kts 110°
2026-04-21 22:44 28.78875 -106.17995 35037 ft 638 kts 110°
2026-04-21 22:44 28.75781 -106.08518 35041 ft 637 kts 110°
2026-04-21 22:45 28.72684 -105.99072 35040 ft 636 kts 110°
2026-04-21 22:45 28.69508 -105.89670 35040 ft 635 kts 112°
2026-04-21 22:46 28.66046 -105.80410 35037 ft 635 kts 115°
2026-04-21 22:46 28.62509 -105.71283 35038 ft 634 kts 114°
2026-04-21 22:47 28.59018 -105.62056 35040 ft 634 kts 113°
2026-04-21 22:47 28.55600 -105.52798 35039 ft 633 kts 113°
2026-04-21 22:48 28.52179 -105.43551 35039 ft 633 kts 114°
2026-04-21 22:48 28.48725 -105.34342 35037 ft 633 kts 114°
2026-04-21 22:49 28.45234 -105.25129 35035 ft 633 kts 114°
2026-04-21 22:49 28.41778 -105.15996 35034 ft 633 kts 114°
2026-04-21 22:50 28.38296 -105.06778 35033 ft 633 kts 114°
2026-04-21 22:50 28.34820 -104.97588 35035 ft 633 kts 114°
2026-04-21 22:51 28.31331 -104.88422 35033 ft 633 kts 114°
2026-04-21 22:51 28.28439 -104.80840 35032 ft 634 kts 114°
2026-04-21 22:52 28.24884 -104.71543 35023 ft 635 kts 114°
2026-04-21 22:52 28.21366 -104.62354 35033 ft 635 kts 114°
2026-04-21 22:53 28.17842 -104.53175 35036 ft 635 kts 114°
2026-04-21 22:53 28.14313 -104.44008 35037 ft 635 kts 114°
2026-04-21 22:54 28.10773 -104.34834 35037 ft 634 kts 114°
2026-04-21 22:54 28.07214 -104.25622 35037 ft 634 kts 114°
2026-04-21 22:55 28.03650 -104.16402 35035 ft 634 kts 114°
2026-04-21 22:55 28.00100 -104.07267 35037 ft 634 kts 115°
2026-04-21 22:56 27.96563 -103.98194 35033 ft 634 kts 115°
2026-04-21 22:56 27.92999 -103.89066 35037 ft 634 kts 115°
2026-04-21 22:57 27.89430 -103.79950 35037 ft 634 kts 115°
2026-04-21 22:57 27.85868 -103.70840 35032 ft 634 kts 115°
2026-04-21 22:58 27.82295 -103.61727 35021 ft 634 kts 115°
2026-04-21 22:58 27.78707 -103.52611 35032 ft 634 kts 114°
2026-04-21 22:59 27.75113 -103.43511 35040 ft 634 kts 115°
2026-04-21 22:59 27.71511 -103.34402 35038 ft 634 kts 115°
2026-04-21 23:00 27.67908 -103.25336 35038 ft 633 kts 115°
2026-04-21 23:00 27.66118 -103.20839 34983 ft 622 kts 115°
2026-04-21 23:00 27.64362 -103.16424 35010 ft 612 kts 115°
2026-04-21 23:01 27.60882 -103.07688 35007 ft 610 kts 115°
2026-04-21 23:01 27.57396 -102.98956 35009 ft 609 kts 115°
2026-04-21 23:02 27.53912 -102.90250 35007 ft 609 kts 115°
2026-04-21 23:02 27.50423 -102.81550 35005 ft 609 kts 115°
2026-04-21 23:03 27.46953 -102.72888 35007 ft 610 kts 115°
2026-04-21 23:03 27.43458 -102.64194 34997 ft 611 kts 115°
2026-04-21 23:04 27.39920 -102.55441 34991 ft 613 kts 115°
2026-04-21 23:04 27.36377 -102.46701 35003 ft 613 kts 115°
2026-04-21 23:05 27.32834 -102.37957 35034 ft 613 kts 116°
2026-04-21 23:05 27.29272 -102.29180 35039 ft 612 kts 116°
2026-04-21 23:06 27.25755 -102.20531 35039 ft 611 kts 116°
2026-04-21 23:06 27.22189 -102.11793 35037 ft 610 kts 116°
2026-04-21 23:07 27.18664 -102.03173 35022 ft 611 kts 116°
2026-04-21 23:07 27.15097 -101.94485 35004 ft 611 kts 116°
2026-04-21 23:08 27.11535 -101.85818 35026 ft 612 kts 116°
2026-04-21 23:08 27.07982 -101.77173 34986 ft 601 kts 116°
2026-04-21 23:09 27.04508 -101.68736 34216 ft 598 kts 116°
2026-04-21 23:09 27.02773 -101.64537 33437 ft 596 kts 117°
2026-04-21 23:09 27.01050 -101.60371 32670 ft 581 kts 116°
2026-04-21 23:10 26.99374 -101.56321 32079 ft 562 kts 116°
2026-04-21 23:10 26.97754 -101.52410 31509 ft 542 kts 115°
2026-04-21 23:10 26.96204 -101.48669 31150 ft 514 kts 115°
2026-04-21 23:10 26.94787 -101.45114 30922 ft 483 kts 112°
2026-04-21 23:11 26.93578 -101.41718 29761 ft 461 kts 113°
2026-04-21 23:11 26.92491 -101.38344 28727 ft 457 kts 112°
2026-04-21 23:11 26.91477 -101.34989 27880 ft 452 kts 111°
2026-04-21 23:11 26.90487 -101.31680 27704 ft 443 kts 111°
2026-04-21 23:12 26.89506 -101.28479 27600 ft 432 kts 112°
2026-04-21 23:12 26.88505 -101.25320 27487 ft 421 kts 113°
2026-04-21 23:12 26.87539 -101.22346 27392 ft 410 kts 114°
2026-04-21 23:12 26.86521 -101.19274 27294 ft 413 kts 114°
2026-04-21 23:13 26.85512 -101.16254 27199 ft 415 kts 114°
2026-04-21 23:13 26.84497 -101.13213 26921 ft 415 kts 114°
2026-04-21 23:13 26.83488 -101.10161 26587 ft 412 kts 113°
2026-04-21 23:13 26.82500 -101.07159 26253 ft 410 kts 113°
2026-04-21 23:14 26.81521 -101.04168 25919 ft 408 kts 113°
2026-04-21 23:14 26.80546 -101.01192 25589 ft 406 kts 113°
2026-04-21 23:14 26.79575 -100.98235 25246 ft 404 kts 113°
2026-04-21 23:14 26.78606 -100.95288 24907 ft 402 kts 113°
2026-04-21 23:15 26.77639 -100.92358 24555 ft 400 kts 113°
2026-04-21 23:15 26.76678 -100.89446 24203 ft 398 kts 113°
2026-04-21 23:15 26.75723 -100.86549 23855 ft 396 kts 113°
2026-04-21 23:15 26.74771 -100.83664 23483 ft 394 kts 113°
2026-04-21 23:16 26.73826 -100.80802 23100 ft 391 kts 113°
2026-04-21 23:16 26.72886 -100.77957 22741 ft 388 kts 113°
2026-04-21 23:16 26.71955 -100.75139 22378 ft 385 kts 113°
2026-04-21 23:16 26.71026 -100.72330 22012 ft 383 kts 112°
2026-04-21 23:17 26.70105 -100.69541 21641 ft 380 kts 112°
2026-04-21 23:17 26.69176 -100.66742 21272 ft 378 kts 112°
2026-04-21 23:17 26.68262 -100.63994 20913 ft 375 kts 112°
2026-04-21 23:17 26.67355 -100.61261 20548 ft 374 kts 112°
2026-04-21 23:18 26.66457 -100.58551 20189 ft 370 kts 112°
2026-04-21 23:18 26.65562 -100.55863 19825 ft 368 kts 112°
2026-04-21 23:18 26.64671 -100.53192 19467 ft 366 kts 112°
2026-04-21 23:18 26.63786 -100.50536 19109 ft 364 kts 112°
2026-04-21 23:19 26.62903 -100.47889 18757 ft 362 kts 112°
2026-04-21 23:19 26.62024 -100.45253 18395 ft 361 kts 112°
2026-04-21 23:19 26.61146 -100.42625 18004 ft 360 kts 112°
2026-04-21 23:19 26.60566 -100.40889 17759 ft 358 kts 112°
2026-04-21 23:20 26.59701 -100.38294 17403 ft 355 kts 112°
2026-04-21 23:20 26.58843 -100.35722 17046 ft 352 kts 112°
2026-04-21 23:20 26.57989 -100.33170 16690 ft 349 kts 112°
2026-04-21 23:20 26.57138 -100.30636 16341 ft 347 kts 112°
2026-04-21 23:21 26.56297 -100.28138 15893 ft 349 kts 112°
2026-04-21 23:21 26.55245 -100.25680 15488 ft 345 kts 126°
2026-04-21 23:21 26.53721 -100.23665 15185 ft 336 kts 142°
2026-04-21 23:21 26.51848 -100.22169 14853 ft 327 kts 156°
2026-04-21 23:22 26.49765 -100.21251 14516 ft 318 kts 171°
2026-04-21 23:22 26.47608 -100.20862 14191 ft 312 kts 177°
2026-04-21 23:22 26.45463 -100.20553 13864 ft 309 kts 177°
2026-04-21 23:22 26.43331 -100.20234 13521 ft 307 kts 176°
2026-04-21 23:23 26.41228 -100.19917 13202 ft 303 kts 176°
2026-04-21 23:23 26.39141 -100.19602 12882 ft 301 kts 176°
2026-04-21 23:23 26.37076 -100.19290 12575 ft 298 kts 176°
2026-04-21 23:23 26.35033 -100.18982 12258 ft 294 kts 176°
2026-04-21 23:24 26.33009 -100.18681 11944 ft 294 kts 176°
2026-04-21 23:24 26.30981 -100.18379 11632 ft 293 kts 176°
2026-04-21 23:24 26.28975 -100.18079 11322 ft 289 kts 176°
2026-04-21 23:24 26.26982 -100.17781 11006 ft 288 kts 175°
2026-04-21 23:25 26.25000 -100.17486 10708 ft 286 kts 175°
2026-04-21 23:25 26.23031 -100.17194 10400 ft 285 kts 175°
2026-04-21 23:25 26.21093 -100.16904 10097 ft 284 kts 175°
2026-04-21 23:25 26.19143 -100.16609 9782 ft 282 kts 174°
2026-04-21 23:26 26.17202 -100.16315 9462 ft 281 kts 174°
2026-04-21 23:26 26.15273 -100.16025 9161 ft 278 kts 174°
2026-04-21 23:26 26.13358 -100.15741 8855 ft 276 kts 175°
2026-04-21 23:26 26.11456 -100.15729 8540 ft 272 kts 190°
2026-04-21 23:27 26.09635 -100.16236 8223 ft 268 kts 204°
2026-04-21 23:27 26.08001 -100.17202 7905 ft 265 kts 217°
2026-04-21 23:27 26.06524 -100.18427 7586 ft 264 kts 218°
2026-04-21 23:27 26.05048 -100.19646 7268 ft 264 kts 218°
2026-04-21 23:28 26.03534 -100.20893 6668 ft 277 kts 218°
2026-04-21 23:28 26.02008 -100.22147 6529 ft 269 kts 217°
2026-04-21 23:28 26.00508 -100.23379 6262 ft 267 kts 217°
2026-04-21 23:28 25.99018 -100.24602 5940 ft 266 kts 217°
2026-04-21 23:29 25.97549 -100.25805 5746 ft 256 kts 216°
2026-04-21 23:29 25.96135 -100.26963 5641 ft 251 kts 216°
2026-04-21 23:29 25.94733 -100.28111 5542 ft 249 kts 216°
2026-04-21 23:29 25.93339 -100.29252 5432 ft 248 kts 216°
2026-04-21 23:30 25.91949 -100.30387 5274 ft 248 kts 215°
2026-04-21 23:30 25.90368 -100.31133 4664 ft 250 kts 181°
2026-04-21 23:30 25.88789 -100.30632 4511 ft 229 kts 142°
2026-04-21 23:30 25.87795 -100.29345 4172 ft 216 kts 123°
2026-04-21 23:31 25.87034 -100.27932 3986 ft 205 kts 119°
2026-04-21 23:31 25.86400 -100.26663 3878 ft 175 kts 119°
2026-04-21 23:31 25.85834 -100.25538 3745 ft 160 kts 120°
2026-04-21 23:31 25.85292 -100.24481 3634 ft 155 kts 120°
2026-04-21 23:32 25.84761 -100.23455 3604 ft 154 kts 119°
2026-04-21 23:32 25.84252 -100.22407 3228 ft 152 kts 118°
2026-04-21 23:32 25.83724 -100.21400 3120 ft 151 kts 121°
2026-04-21 23:32 25.83204 -100.20391 2870 ft 149 kts 120°
2026-04-21 23:33 25.82685 -100.19412 2668 ft 146 kts 122°
2026-04-21 23:33 25.82154 -100.18444 2541 ft 147 kts 122°
2026-04-21 23:33 25.81600 -100.17495 2440 ft 146 kts 124°
2026-04-21 23:33 25.81063 -100.16546 2307 ft 147 kts 123°
2026-04-21 23:34 25.80518 -100.15575 2135 ft 154 kts 121°
2026-04-21 23:34 25.79974 -100.14578 1948 ft 151 kts 120°
2026-04-21 23:34 25.79441 -100.13577 1768 ft 150 kts 118°
2026-04-21 23:34 25.78894 -100.12606 1580 ft 145 kts 119°
2026-04-21 23:35 25.78388 -100.11668 1366 ft 138 kts 119°
2026-04-21 23:35 25.77940 -100.10847 1332 ft 107 kts 121°
2026-04-21 23:35 25.77613 -100.10250 1331 ft 76 kts 122°
2026-04-21 23:35 25.77390 -100.09846 1331 ft 36 kts 122°
2026-04-21 23:36 25.77293 -100.09693 1331 ft 15 kts 159°
2026-04-21 23:36 25.77200 -100.09735 1331 ft 15 kts 211°
2026-04-21 23:36 25.77151 -100.09815 1331 ft 13 kts 284°
2026-04-21 23:36 25.77196 -100.09900 1331 ft 13 kts 301°
2026-04-21 23:37 25.77260 -100.10018 1331 ft 28 kts 301°
2026-04-21 23:37 25.77366 -100.10211 1334 ft 30 kts 301°
2026-04-21 23:37 25.77460 -100.10380 1331 ft 25 kts 302°
2026-04-21 23:37 25.77552 -100.10546 1331 ft 26 kts 301°
2026-04-21 23:38 25.77645 -100.10715 1331 ft 22 kts 301°
2026-04-21 23:38 25.77725 -100.10859 1331 ft 22 kts 301°
2026-04-21 23:38 25.77807 -100.11009 1331 ft 23 kts 301°
2026-04-21 23:38 25.77891 -100.11163 1333 ft 24 kts 301°
2026-04-21 23:39 25.77919 -100.11215 1331 ft 7 kts 300°
2026-04-21 23:39 25.77946 -100.11266 1331 ft 8 kts 297°
2026-04-21 23:39 25.77936 -100.11288 1331 ft 3 kts 221°
2026-04-21 23:39 25.77913 -100.11306 1331 ft 5 kts 213°
2026-04-21 23:40 25.77880 -100.11328 1331 ft 6 kts 211°
2026-04-21 23:40 25.77876 -100.11331 1331 ft 0 kts 211°